When you browse on this site, cookies collect data to enhance your experience and personalize the content and advertising you see.
Visit our Privacy Policy to learn more. By continuing to use the site, you agree to this use of cookies and data.
  • In United Kingdom
  • List of Countries
  • For 7 days
  • Water Temperature
  • Satellite Maps
  • Weather Map
  • Weather Widgets
  • user-avatar
    Login

    Hourly Weather Banbridge

    Today, 20 June, Thursday

    Time Temperature Precipitation Wind Pressure Humidity
    00:00 +8°C° 0 mm 3 mps 748 mmHg 96%
    01:00 +8°C° 0 mm 3 mps 748 mmHg 96%
    02:00 +7°C° 0 mm 3 mps 748 mmHg 96%
    03:00 +5°C° 0 mm 3 mps 748 mmHg 95%
    04:00 +7°C° 0 mm 3 mps 748 mmHg 95%
    05:00 +7°C° 0 mm 3 mps 748 mmHg 95%
    06:00 +6°C° 0 mm 4 mps 749 mmHg 95%
    07:00 +8°C° 0 mm 4 mps 749 mmHg 90%
    08:00 +10°C° 0 mm 4 mps 749 mmHg 84%
    09:00 +12°C° 0 mm 5 mps 749 mmHg 79%
    10:00 +12°C° 0.3 mm 4 mps 750 mmHg 79%
    11:00 +12°C° 0.3 mm 4 mps 750 mmHg 79%
    12:00 +13°C° 0.3 mm 4 mps 750 mmHg 78%
    13:00 +13°C° 0.4 mm 4 mps 750 mmHg 77%
    14:00 +13°C° 0.4 mm 4 mps 750 mmHg 76%
    15:00 +14°C° 0.4 mm 4 mps 751 mmHg 74%
    16:00 +13°C° 0.4 mm 3 mps 751 mmHg 78%
    17:00 +13°C° 0.4 mm 3 mps 751 mmHg 81%
    18:00 +14°C° 0.4 mm 2 mps 751 mmHg 84%
    19:00 +12°C° 0.2 mm 2 mps 751 mmHg 86%
    20:00 +10°C° 0.2 mm 2 mps 752 mmHg 88%
    21:00 +10°C° 0.2 mm 1 mps 752 mmHg 90%
    22:00 +9°C° 0 mm 1 mps 752 mmHg 91%
    23:00 +8°C° 0 mm 1 mps 753 mmHg 92%

    Tomorrow, 21 June, Friday

    Time Temperature Precipitation Wind Pressure Humidity
    00:00 +6°C° 0 mm 2 mps 753 mmHg 93%
    01:00 +6°C° 0 mm 2 mps 753 mmHg 94%
    02:00 +5°C° 0 mm 2 mps 753 mmHg 94%
    03:00 +5°C° 0 mm 2 mps 754 mmHg 95%
    04:00 +6°C° 0 mm 2 mps 754 mmHg 94%
    05:00 +6°C° 0 mm 2 mps 754 mmHg 94%
    06:00 +7°C° 0 mm 2 mps 755 mmHg 94%
    07:00 +9°C° 0 mm 2 mps 755 mmHg 88%
    08:00 +10°C° 0 mm 2 mps 755 mmHg 82%
    09:00 +13°C° 0 mm 2 mps 756 mmHg 77%
    10:00 +13°C° 0 mm 2 mps 756 mmHg 73%
    11:00 +14°C° 0 mm 2 mps 756 mmHg 69%
    12:00 +15°C° 0 mm 2 mps 757 mmHg 66%
    13:00 +15°C° 0.1 mm 2 mps 757 mmHg 67%
    14:00 +15°C° 0.1 mm 2 mps 757 mmHg 68%
    15:00 +16°C° 0.1 mm 2 mps 757 mmHg 69%
    16:00 +15°C° 0.1 mm 2 mps 757 mmHg 72%
    17:00 +15°C° 0.1 mm 2 mps 757 mmHg 76%
    18:00 +15°C° 0.1 mm 2 mps 757 mmHg 80%
    19:00 +13°C° 0.1 mm 2 mps 757 mmHg 85%
    20:00 +12°C° 0.1 mm 2 mps 757 mmHg 89%
    21:00 +9°C° 0.1 mm 2 mps 758 mmHg 94%
    22:00 +9°C° 0 mm 2 mps 758 mmHg 94%
    23:00 +9°C° 0 mm 2 mps 758 mmHg 94%

    Day after tomorrow, 22 June, Saturday

    Time Temperature Precipitation Wind Pressure Humidity
    00:00 +8°C° 0 mm 2 mps 757 mmHg 93%
    01:00 +9°C° 0.1 mm 2 mps 757 mmHg 94%
    02:00 +10°C° 0.1 mm 1 mps 757 mmHg 95%
    03:00 +11°C° 0.1 mm 1 mps 757 mmHg 95%
    04:00 +11°C° 0 mm 1 mps 757 mmHg 95%
    05:00 +12°C° 0 mm 1 mps 757 mmHg 95%
    06:00 +12°C° 0 mm 2 mps 757 mmHg 95%
    07:00 +13°C° 0 mm 2 mps 758 mmHg 91%
    08:00 +14°C° 0 mm 2 mps 758 mmHg 87%
    09:00 +15°C° 0 mm 2 mps 758 mmHg 83%
    10:00 +16°C° 0.1 mm 3 mps 758 mmHg 79%
    11:00 +17°C° 0.1 mm 3 mps 758 mmHg 75%
    12:00 +17°C° 0.1 mm 3 mps 758 mmHg 71%
    13:00 +17°C° 0.1 mm 3 mps 758 mmHg 71%
    14:00 +17°C° 0.1 mm 4 mps 757 mmHg 71%
    15:00 +17°C° 0.1 mm 4 mps 757 mmHg 70%
    16:00 +17°C° 0 mm 3 mps 757 mmHg 73%
    17:00 +16°C° 0 mm 3 mps 757 mmHg 76%
    18:00 +14°C° 0 mm 3 mps 757 mmHg 79%
    19:00 +14°C° 0 mm 2 mps 757 mmHg 81%
    20:00 +12°C° 0 mm 2 mps 757 mmHg 83%
    21:00 +10°C° 0 mm 2 mps 757 mmHg 85%
    22:00 +11°C° 0 mm 1 mps 757 mmHg 85%
    23:00 +10°C° 0 mm 1 mps 757 mmHg 84%

    23 June, Sunday

    Time Temperature Precipitation Wind Pressure Humidity
    00:00 +10°C° 0 mm 1 mps 757 mmHg 84%
    01:00 +10°C° 0 mm 1 mps 757 mmHg 84%
    02:00 +10°C° 0 mm 1 mps 756 mmHg 85%
    03:00 +11°C° 0 mm 1 mps 756 mmHg 86%
    04:00 +11°C° 0 mm 1 mps 756 mmHg 86%
    05:00 +12°C° 0 mm 1 mps 756 mmHg 87%
    06:00 +13°C° 0 mm 2 mps 756 mmHg 87%
    07:00 +14°C° 0 mm 2 mps 757 mmHg 85%
    08:00 +16°C° 0 mm 3 mps 757 mmHg 83%
    09:00 +17°C° 0 mm 3 mps 757 mmHg 81%
    10:00 +17°C° 0 mm 4 mps 757 mmHg 79%
    11:00 +18°C° 0 mm 4 mps 757 mmHg 76%
    12:00 +18°C° 0 mm 4 mps 757 mmHg 73%
    13:00 +18°C° 0 mm 4 mps 757 mmHg 75%
    14:00 +17°C° 0 mm 3 mps 757 mmHg 77%
    15:00 +17°C° 0 mm 3 mps 757 mmHg 79%
    16:00 +17°C° 0 mm 3 mps 757 mmHg 80%
    17:00 +17°C° 0 mm 2 mps 757 mmHg 82%
    18:00 +17°C° 0 mm 2 mps 757 mmHg 83%
    19:00 +16°C° 0 mm 2 mps 757 mmHg 83%
    20:00 +16°C° 0 mm 3 mps 757 mmHg 83%
    21:00 +14°C° 0 mm 3 mps 757 mmHg 83%
    22:00 +14°C° 0.2 mm 3 mps 757 mmHg 86%
    23:00 +14°C° 0.2 mm 4 mps 757 mmHg 89%

    24 June, Monday

    Time Temperature Precipitation Wind Pressure Humidity
    00:00 +14°C° 0.2 mm 4 mps 756 mmHg 91%
    01:00 +14°C° 0.8 mm 5 mps 756 mmHg 93%
    02:00 +13°C° 0.8 mm 5 mps 756 mmHg 95%
    03:00 +13°C° 0.8 mm 6 mps 755 mmHg 96%
    04:00 +11°C° 3.8 mm 6 mps 755 mmHg 97%
    05:00 +11°C° 3.8 mm 6 mps 755 mmHg 97%
    06:00 +11°C° 3.8 mm 6 mps 755 mmHg 98%
    07:00 +12°C° 3.4 mm 5 mps 755 mmHg 98%
    08:00 +13°C° 3.4 mm 5 mps 755 mmHg 97%
    09:00 +13°C° 3.4 mm 5 mps 755 mmHg 97%
    10:00 +14°C° 0.2 mm 5 mps 755 mmHg 96%
    11:00 +15°C° 0.2 mm 4 mps 756 mmHg 95%
    12:00 +15°C° 0.2 mm 4 mps 756 mmHg 93%
    13:00 +17°C° 0 mm 4 mps 756 mmHg 91%
    14:00 +17°C° 0 mm 3 mps 756 mmHg 89%
    15:00 +18°C° 0 mm 3 mps 756 mmHg 88%
    16:00 +18°C° 0 mm 3 mps 756 mmHg 88%
    17:00 +18°C° 0 mm 2 mps 756 mmHg 89%
    18:00 +18°C° 0 mm 2 mps 757 mmHg 89%
    19:00 +17°C° 0 mm 2 mps 757 mmHg 92%
    20:00 +16°C° 0 mm 2 mps 757 mmHg 94%
    21:00 +15°C° 0 mm 2 mps 758 mmHg 97%
    22:00 +15°C° 0 mm 2 mps 758 mmHg 97%
    23:00 +15°C° 0 mm 2 mps 758 mmHg 97%

    25 June, Tuesday

    Time Temperature Precipitation Wind Pressure Humidity
    00:00 +15°C° 0 mm 2 mps 758 mmHg 98%
    01:00 +15°C° 0 mm 2 mps 758 mmHg 97%
    02:00 +14°C° 0 mm 3 mps 758 mmHg 97%
    03:00 +14°C° 0 mm 3 mps 758 mmHg 96%
    04:00 +14°C° 0 mm 3 mps 758 mmHg 96%
    05:00 +14°C° 0 mm 3 mps 758 mmHg 95%
    06:00 +14°C° 0 mm 4 mps 758 mmHg 95%
    07:00 +14°C° 2.8 mm 4 mps 757 mmHg 96%
    08:00 +14°C° 2.8 mm 4 mps 757 mmHg 97%
    09:00 +14°C° 2.8 mm 4 mps 757 mmHg 98%
    10:00 +14°C° 2.5 mm 5 mps 757 mmHg 98%
    11:00 +14°C° 2.5 mm 6 mps 757 mmHg 98%
    12:00 +14°C° 2.5 mm 7 mps 757 mmHg 97%
    13:00 +14°C° 0.6 mm 6 mps 757 mmHg 97%
    14:00 +15°C° 0.6 mm 6 mps 756 mmHg 97%
    15:00 +15°C° 0.6 mm 6 mps 756 mmHg 97%
    16:00 +15°C° 0.2 mm 6 mps 757 mmHg 96%
    17:00 +16°C° 0.2 mm 6 mps 757 mmHg 95%
    18:00 +16°C° 0.2 mm 6 mps 757 mmHg 94%
    19:00 +16°C° 0 mm 5 mps 758 mmHg 95%
    20:00 +15°C° 0 mm 4 mps 758 mmHg 96%
    21:00 +16°C° 0 mm 3 mps 759 mmHg 96%
    22:00 +16°C° 0 mm 3 mps 759 mmHg 96%
    23:00 +14°C° 0 mm 3 mps 759 mmHg 96%
    Show more